RH
46 44 38 39 47 54 55 57 57 56 56 54 54 59 65 70 72 71 60 48 45 47 48 41 41 43 43 41 40 41 42 43 45 46 45 46 50 46 47 50 48 49 47
38 39 35 40 46 51 55 54 58 61 50 48 51 56 63 66 68 64 57 51 48 45 45 46 46 46 44 48 45 43 43 41 42 42 42 43 45 46 49 54 53 42 34
34 37 34 38 44 47 49 46 52 51 43 42 43 46 52 54 55 56 48 47 49 53 49 49 48 48 44 42 40 48 50 44 44 45 45 47 50 46 44 38 33 31 30
31 36 35 31 36 38 38 38 40 41 40 40 41 43 45 50 50 51 50 46 45 45 48 48 45 38 35 33 40 50 54 47 42 40 51 59 59 56 46 44 37 34 30
31 33 34 30 29 32 34 35 36 36 37 39 41 42 47 50 52 48 49 50 48 48 47 44 41 34 28 27 29 30 34 33 34 40 46 48 43 38 33 30 27 25 24
31 33 33 29 28 29 32 33 34 35 34 34 36 40 42 48 50 56 52 48 47 46 42 37 31 26 21 20 20 21 25 27 29 40 37 33 29 28 24 25 26 27 27
29 34 35 31 27 27 29 29 29 28 28 29 29 32 38 42 46 48 47 46 44 41 34 27 24 21 20 20 21 22 23 27 28 29 30 27 27 28 27 27 27 26 25
30 36 39 37 30 27 27 28 28 27 27 27 27 26 28 33 39 40 39 37 32 28 26 24 21 20 22 22 22 22 25 28 30 32 35 30 28 26 26 25 24 23 23
31 36 37 37 36 32 30 29 29 28 27 25 25 25 25 25 25 27 28 29 28 28 27 26 25 24 25 25 26 27 26 27 29 32 33 32 29 26 24 23 21 20 20
30 35 36 35 40 40 34 31 32 30 28 27 23 24 25 24 24 24 24 24 25 26 27 28 27 26 26 26 26 26 26 26 25 24 23 22 20 19 19 19 19 19 19
32 33 35 32 33 36 36 35 35 31 29 27 24 24 24 24 24 23 23 23 23 25 28 29 29 28 28 28 27 27 26 24 23 22 21 20 19 19 19 20 19 19 19
31 32 33 31 30 29 31 34 36 34 29 26 24 23 23 22 22 23 23 24 25 26 28 29 29 28 27 27 26 25 23 24 24 23 22 22 21 21 20 20 20 19 19
27 30 30 30 29 28 29 30 31 32 29 26 24 23 23 23 22 23 24 24 25 25 26 26 25 25 26 26 24 23 22 21 22 22 22 22 22 21 20 20 20 19 19
25 25 26 26 27 29 30 29 28 28 27 26 26 22 23 24 26 26 26 27 26 26 25 25 24 23 22 22 21 21 21 21 20 20 21 21 21 21 20 20 20 20 20
24 25 24 25 28 32 32 29 28 30 29 28 25 24 25 27 28 28 28 28 27 25 25 24 24 23 22 21 20 19 19 19 19 19 19 20 20 21 21 21 21 21 21
24 25 27 28 30 32 32 33 30 30 31 28 26 26 26 28 29 29 29 28 28 27 26 25 24 24 23 21 20 20 19 19 19 18 18 19 19 20 20 21 21 22 22
24 25 30 31 33 33 33 32 33 32 31 28 27 27 28 29 30 28 29 29 29 28 27 27 26 26 26 25 22 21 21 20 20 20 20 20 20 21 21 22 23 22 22
26 27 30 32 33 33 33 34 33 34 32 32 28 28 29 30 31 30 31 32 29 29 28 28 28 28 28 27 27 26 24 23 23 22 22 23 23 24 24 24 23 23 23
27 28 29 32 33 34 35 34 34 34 32 30 29 28 29 31 31 32 32 31 30 29 29 30 31 31 30 30 30 29 29 28 27 26 26 26 27 26 26 25 24 24 23
28 30 31 32 33 32 34 36 35 32 32 31 30 29 30 35 35 32 31 31 32 31 32 32 33 33 33 32 32 31 30 28 28 27 26 28 27 26 26 24 23 25 24
29 31 33 34 33 32 31 32 37 34 30 30 29 28 33 34 31 33 33 34 34 34 34 35 35 35 33 31 29 29 28 27 27 28 27 27 24 23 23 21 19 19 20
30 32 34 35 35 33 32 30 33 33 32 31 29 29 34 35 34 37 37 36 35 36 35 34 34 33 32 29 27 27 28 29 27 24 25 21 21 20 19 18 18 19 19
31 34 35 35 34 33 32 35 35 36 34 32 30 30 30 38 35 38 38 37 37 38 38 37 33 31 30 28 28 28 29 27 23 23 20 20 19 18 17 17 17 17 17
33 36 36 33 31 33 33 34 34 32 31 31 33 33 34 35 38 40 38 39 41 39 34 30 27 28 29 29 28 27 26 25 23 21 21 21 20 19 18 18 18 19 20
36 37 39 35 32 33 33 35 35 33 31 33 35 35 37 39 40 41 42 43 41 38 34 28 28 28 28 27 25 24 25 24 24 24 21 20 20 19 19 19 20 21 21
37 40 42 40 37 36 36 37 37 37 37 38 40 40 42 43 43 43 44 43 41 40 37 30 29 27 26 25 26 27 26 26 25 25 25 23 21 21 21 23 23 24 23